Location: Newark
(45.1000°N, 8.5833°E)
Time: 13:15:36
(UTC+00:00)

ISS - Pass Details

Date: 22 September 2019
Orbit: 411 x 421 km, 51.6° (Epoch: 18 October)

Event Time Altitude Azimuth Distance (km) Brightness Sun altitude
Rises 17:42:08 0° 216° (SW) 2,332 0.5 -4.0°
Reaches altitude 10° 17:44:19 10° 207° (SSW) 1,473 -0.7 -4.4°
Maximum altitude 17:47:20 33° 141° (SE) 710 -2.9 -4.9°
Drops below altitude 10° 17:50:22 10° 75° (ENE) 1,480 -1.6 -5.5°
Enters shadow 17:51:24 - 69° (ENE) 1,878 -1.0 -5.7°
